Weather History for KTEB - July, 2013

Change the Weather History Date:

Saturday, July 27, 2013

  Actual Average Record
Temperature  
Mean Temperature 75 °F -  
Max Temperature 87 °F 83 °F 102 °F (2005)
Min Temperature 66 °F 64 °F 57 °F (2001)
Cooling Degree Days 10    
Growing Degree Days 25 (Base 50)    
Moisture  
Dew Point 62 °F    
Average Humidity 66    
Maximum Humidity 87    
Minimum Humidity 46    
Precipitation  
Precipitation 0.00 in - - ()
Sea Level Pressure  
Sea Level Pressure 30.01 in    
Wind  
Wind Speed 6 mph (South)    
Max Wind Speed 14 mph    
Max Gust Speed 18 mph    
Visibility 10 miles    
Events Fog    
Averages and records for this station are not official NWS values.
T = Trace of Precipitation, MM = Missing Value Source: NWS Daily Summary

Daily Weather History Graph

Daily Weather History Graph

Search for Another Location

Airport or City:

Trip Planner

Search our weather history database for the weather conditions in past years. The results will help you decide how hot, cold, wet, or windy it might be!

Date:

Astronomy

Jul. 27, 2013 Rise Set
Actual Time 5:48 AM EDT 8:16 PM EDT
Civil Twilight 5:16 AM EDT 8:48 PM EDT
Nautical Twilight 4:37 AM EDT 9:26 PM EDT
Astronomical Twilight 3:54 AM EDT 10:10 PM EDT
Moon 10:59 PM EDT (7/27) 11:28 AM EDT (7/27)
Length of Visible Light 15h 31m
Length of Day
14h 28m
Waning Gibbous, 71% of the Moon is Illuminated
Jul 27
Waning Gibbous
Jul 29
Last Quarter
Aug 6
New
Aug 14
First Quarter
Aug 20
Full

Hourly Weather History & Observations

Time (EDT) Temp. Heat Index Dew Point Humidity Pressure Visibility Wind Dir Wind Speed Gust Speed Precip Events Conditions
12:51 AM 70.0 °F - 64.0 °F 81% 30.04 in 10.0 mi SSW 5.8 mph - N/A   Clear
1:51 AM 70.0 °F - 64.0 °F 81% 30.03 in 10.0 mi SSW 8.1 mph - N/A   Clear
2:51 AM 70.0 °F - 64.0 °F 81% 30.03 in 10.0 mi SSW 8.1 mph - N/A   Clear
3:51 AM 68.0 °F - 64.0 °F 87% 30.02 in 10.0 mi SSW 5.8 mph - N/A   Clear
4:51 AM 66.9 °F - 63.0 °F 87% 30.03 in 10.0 mi Calm Calm - N/A   Clear
5:51 AM 66.9 °F - 63.0 °F 87% 30.04 in 9.0 mi Calm Calm - N/A Fog Shallow Fog
6:51 AM 68.0 °F - 64.0 °F 87% 30.04 in 10.0 mi Calm Calm - N/A   Clear
7:51 AM 70.0 °F - 64.0 °F 81% 30.04 in 10.0 mi SSE 3.5 mph - N/A   Clear
8:51 AM 73.9 °F - 64.0 °F 71% 30.04 in 10.0 mi South 3.5 mph - N/A   Clear
9:51 AM 78.1 °F - 63.0 °F 60% 30.05 in 10.0 mi Calm Calm - N/A   Clear
10:51 AM 82.0 °F 82.4 °F 60.1 °F 47% 30.04 in 10.0 mi SSW 8.1 mph - N/A   Scattered Clouds
11:51 AM 82.0 °F 82.4 °F 60.1 °F 47% 30.04 in 10.0 mi South 10.4 mph - N/A   Scattered Clouds
12:51 PM 81.0 °F 81.9 °F 62.1 °F 52% 30.03 in 10.0 mi SSE 12.7 mph - N/A   Scattered Clouds
1:51 PM 82.9 °F 83.7 °F 62.1 °F 49% 30.01 in 10.0 mi South 9.2 mph 18.4 mph N/A   Mostly Cloudy
2:51 PM 82.9 °F 83.7 °F 62.1 °F 49% 30.00 in 10.0 mi South 13.8 mph 17.3 mph N/A   Partly Cloudy
3:51 PM 84.0 °F 84.4 °F 61.0 °F 46% 29.99 in 10.0 mi SSE 9.2 mph 16.1 mph N/A   Clear
4:51 PM 82.9 °F 83.2 °F 60.1 °F 46% 29.97 in 10.0 mi South 10.4 mph - N/A   Clear
5:51 PM 80.1 °F 80.6 °F 57.9 °F 47% 29.96 in 10.0 mi SE 10.4 mph - N/A   Clear
6:51 PM 79.0 °F - 57.0 °F 47% 29.96 in 10.0 mi SE 12.7 mph - N/A   Clear
7:51 PM 75.9 °F - 59.0 °F 56% 29.97 in 10.0 mi South 10.4 mph - N/A   Clear
8:51 PM 73.0 °F - 62.1 °F 68% 29.99 in 10.0 mi South 6.9 mph - N/A   Clear
9:51 PM 72.0 °F - 64.0 °F 76% 29.99 in 10.0 mi South 9.2 mph - N/A   Clear
10:51 PM 72.0 °F - 64.9 °F 78% 29.98 in 10.0 mi SSE 4.6 mph - N/A   Clear
11:51 PM 69.1 °F - 64.0 °F 84% 29.96 in 10.0 mi Calm Calm - N/A   Clear